TimeCDT,TemperatureF,Dew PointF,Humidity,Sea Level PressureIn,VisibilityMPH,Wind Direction,Wind SpeedMPH,Gust SpeedMPH,PrecipitationIn,Events,Conditions,WindDirDegrees,DateUTC
12:15 AM,54.7,52.3,92,30.13,10.0,Calm,Calm,-,N/A,,Clear,0,2013-05-01 05:15:00
12:35 AM,54.1,52.3,94,30.13,10.0,Calm,Calm,-,N/A,,Clear,0,2013-05-01 05:35:00
12:55 AM,53.6,52.0,94,30.13,10.0,Calm,Calm,-,N/A,,Clear,0,2013-05-01 05:55:00
1:15 AM,54.0,52.0,93,30.13,10.0,Calm,Calm,-,N/A,,Clear,0,2013-05-01 06:15:00
1:35 AM,53.6,51.8,94,30.13,10.0,Calm,Calm,-,N/A,,Clear,0,2013-05-01 06:35:00
1:55 AM,52.9,51.4,95,30.13,10.0,Calm,Calm,-,N/A,,Clear,0,2013-05-01 06:55:00
2:15 AM,52.5,50.9,94,30.13,10.0,Calm,Calm,-,N/A,,Clear,0,2013-05-01 07:15:00
2:35 AM,52.7,50.9,94,30.14,10.0,Calm,Calm,-,N/A,,Clear,0,2013-05-01 07:35:00
2:55 AM,52.3,50.5,94,30.14,10.0,Calm,Calm,-,N/A,,Clear,0,2013-05-01 07:55:00
3:15 AM,51.8,50.4,95,30.13,10.0,Calm,Calm,-,N/A,,Clear,0,2013-05-01 08:15:00
3:35 AM,51.1,50.2,97,30.14,10.0,Calm,Calm,-,N/A,,Clear,0,2013-05-01 08:35:00
3:55 AM,51.8,50.5,95,30.14,10.0,Calm,Calm,-,N/A,,Clear,0,2013-05-01 08:55:00
4:15 AM,51.6,50.4,95,30.14,10.0,Calm,Calm,-,N/A,,Clear,0,2013-05-01 09:15:00
4:35 AM,50.7,50.0,97,30.14,10.0,Calm,Calm,-,N/A,,Clear,0,2013-05-01 09:35:00
5:15 AM,50.5,49.6,97,30.16,10.0,Calm,Calm,-,N/A,,Clear,0,2013-05-01 10:15:00
5:35 AM,50.5,49.8,97,30.17,10.0,Calm,Calm,-,N/A,,Clear,0,2013-05-01 10:35:00
5:55 AM,50.5,49.5,96,30.17,10.0,Calm,Calm,-,N/A,,Clear,0,2013-05-01 10:55:00
6:15 AM,50.7,49.6,96,30.18,10.0,Calm,Calm,-,N/A,,Clear,0,2013-05-01 11:15:00
6:35 AM,52.0,50.2,94,30.19,10.0,Calm,Calm,-,N/A,,Clear,0,2013-05-01 11:35:00
6:55 AM,52.9,51.1,94,30.20,10.0,Calm,Calm,-,N/A,,Clear,0,2013-05-01 11:55:00
7:15 AM,54.7,52.3,92,30.20,10.0,Calm,Calm,-,N/A,,Clear,0,2013-05-01 12:15:00
7:35 AM,58.1,54.3,87,30.20,10.0,Calm,Calm,-,N/A,,Clear,0,2013-05-01 12:35:00
7:55 AM,63.5,54.1,72,30.21,10.0,Calm,Calm,-,N/A,,Clear,0,2013-05-01 12:55:00
8:15 AM,64.8,54.1,68,30.21,10.0,SE,4.6,-,N/A,,Clear,130,2013-05-01 13:15:00
8:35 AM,65.7,54.0,66,30.22,10.0,East,4.6,-,N/A,,Clear,100,2013-05-01 13:35:00
9:15 AM,67.3,54.0,62,30.22,10.0,East,8.1,-,N/A,,Clear,100,2013-05-01 14:15:00
9:35 AM,68.4,54.0,60,30.23,10.0,East,5.8,-,N/A,,Clear,100,2013-05-01 14:35:00
9:55 AM,68.4,54.1,60,30.23,10.0,SSE,4.6,-,N/A,,Clear,160,2013-05-01 14:55:00
10:15 AM,69.6,54.3,58,30.23,10.0,ESE,4.6,-,N/A,,Clear,120,2013-05-01 15:15:00
10:35 AM,70.5,54.1,56,30.23,10.0,SE,6.9,-,N/A,,Scattered Clouds,130,2013-05-01 15:35:00
10:55 AM,70.9,54.0,55,30.22,10.0,SE,3.5,-,N/A,,Mostly Cloudy,140,2013-05-01 15:55:00
11:15 AM,72.9,55.0,53,30.21,10.0,East,4.6,-,N/A,,Mostly Cloudy,100,2013-05-01 16:15:00
11:35 AM,72.5,53.4,51,30.20,10.0,SSE,4.6,-,N/A,,Scattered Clouds,160,2013-05-01 16:35:00
11:55 AM,74.3,55.6,52,30.19,10.0,SSE,3.5,-,N/A,,Clear,160,2013-05-01 16:55:00
12:15 PM,75.0,54.7,49,30.18,10.0,SSE,5.8,-,N/A,,Clear,150,2013-05-01 17:15:00
12:35 PM,75.9,53.8,46,30.18,10.0,SE,6.9,-,N/A,,Clear,140,2013-05-01 17:35:00
12:55 PM,75.7,54.5,48,30.17,10.0,SSE,4.6,-,N/A,,Clear,150,2013-05-01 17:55:00
1:15 PM,76.6,54.9,47,30.17,10.0,South,5.8,-,N/A,,Clear,170,2013-05-01 18:15:00
1:35 PM,76.8,54.3,46,30.17,10.0,ESE,5.8,-,N/A,,Clear,120,2013-05-01 18:35:00
2:15 PM,77.4,54.1,44,30.17,10.0,SE,4.6,-,N/A,,Clear,140,2013-05-01 19:15:00
2:35 PM,77.5,53.6,43,30.16,10.0,SSW,3.5,-,N/A,,Clear,200,2013-05-01 19:35:00
2:55 PM,78.1,53.6,43,30.16,10.0,SSE,4.6,-,N/A,,Clear,160,2013-05-01 19:55:00
3:15 PM,77.4,53.1,43,30.16,10.0,East,5.8,-,N/A,,Scattered Clouds,90,2013-05-01 20:15:00
3:35 PM,76.8,53.6,44,30.15,10.0,ESE,4.6,-,N/A,,Mostly Cloudy,120,2013-05-01 20:35:00
3:55 PM,77.0,53.4,44,30.15,10.0,East,8.1,-,N/A,,Mostly Cloudy,90,2013-05-01 20:55:00
4:15 PM,76.1,53.1,45,30.15,10.0,SE,8.1,-,N/A,,Scattered Clouds,130,2013-05-01 21:15:00
4:35 PM,76.3,53.2,45,30.15,10.0,ESE,6.9,-,N/A,,Clear,110,2013-05-01 21:35:00
4:55 PM,75.6,52.9,45,30.15,10.0,East,6.9,-,N/A,,Clear,90,2013-05-01 21:55:00
5:15 PM,75.0,52.2,45,30.15,10.0,SE,4.6,-,N/A,,Clear,140,2013-05-01 22:15:00
5:35 PM,74.5,51.4,44,30.15,10.0,ESE,6.9,-,N/A,,Clear,110,2013-05-01 22:35:00
5:55 PM,73.6,49.8,43,30.16,10.0,ESE,8.1,-,N/A,,Clear,120,2013-05-01 22:55:00
6:15 PM,72.9,49.6,44,30.15,10.0,East,5.8,-,N/A,,Clear,100,2013-05-01 23:15:00
6:35 PM,72.5,49.3,44,30.16,10.0,Calm,Calm,-,N/A,,Clear,0,2013-05-01 23:35:00
6:55 PM,71.6,50.0,46,30.16,10.0,ESE,3.5,-,N/A,,Clear,120,2013-05-01 23:55:00
7:15 PM,70.7,49.6,47,30.17,10.0,SE,4.6,-,N/A,,Clear,140,2013-05-02 00:15:00
7:35 PM,70.2,48.7,46,30.18,10.0,Calm,Calm,-,N/A,,Clear,0,2013-05-02 00:35:00
7:55 PM,69.8,48.4,46,30.18,10.0,ESE,4.6,-,N/A,,Clear,120,2013-05-02 00:55:00
8:35 PM,68.2,48.4,49,30.19,10.0,Calm,Calm,-,N/A,,Clear,0,2013-05-02 01:35:00
8:55 PM,67.6,48.6,50,30.20,10.0,East,4.6,-,N/A,,Clear,90,2013-05-02 01:55:00
9:35 PM,66.9,49.1,53,30.21,10.0,East,3.5,-,N/A,,Clear,100,2013-05-02 02:35:00
9:55 PM,66.6,49.1,53,30.21,10.0,East,4.6,-,N/A,,Clear,80,2013-05-02 02:55:00
10:15 PM,66.2,49.3,54,30.21,10.0,Calm,Calm,-,N/A,,Clear,0,2013-05-02 03:15:00
10:35 PM,65.8,49.3,55,30.21,10.0,Calm,Calm,-,N/A,,Clear,0,2013-05-02 03:35:00
10:55 PM,65.1,49.3,56,30.21,10.0,SE,3.5,-,N/A,,Clear,130,2013-05-02 03:55:00
11:15 PM,65.3,49.3,56,30.21,10.0,Calm,Calm,-,N/A,,Clear,0,2013-05-02 04:15:00
11:35 PM,64.6,49.5,58,30.21,10.0,Calm,Calm,-,N/A,,Scattered Clouds,0,2013-05-02 04:35:00
11:55 PM,64.4,49.6,59,30.21,10.0,SE,3.5,-,N/A,,Clear,130,2013-05-02 04:55:00